Brookhaven, MS

7:10 AM CDT on May 25, 2018 (GMT -0500)
Brookhaven

Weather History for K1R7 - November, 2013

Change the Weather History Date:

Thursday, November 21, 2013

  Actual Average (KMCB) Record (KMCB)
Temperature  
Mean Temperature 56 °F -  
Max Temperature 66 °F 66 °F 80 °F (1966)
Min Temperature 46 °F 43 °F 24 °F (1981)
Degree Days  
Heating Degree Days 9    
Growing Degree Days 6 (Base 50)    
Moisture  
Dew Point 58 °F    
Average Humidity 96    
Maximum Humidity 100    
Minimum Humidity 88    
Precipitation  
Precipitation 0.00 in - - ()
Sea Level Pressure  
Sea Level Pressure 30.18 in    
Wind  
Wind Speed 2 mph (ESE)    
Max Wind Speed 7 mph    
Max Gust Speed -    
Visibility 5 miles    
Events Fog    
Averages and records for this station are not official NWS values.
T = Trace of Precipitation, MM = Missing Value Source: NWS Daily Summary

Daily Weather History Graph

Daily Weather History Graph

Search for Another Location

Airport or City:

Astronomy

Nov. 21, 2013 Rise Set
Actual Time 6:35 AM CST 4:59 PM CST
Civil Twilight 6:08 AM CST 5:25 PM CST
Nautical Twilight 5:39 AM CST 5:55 PM CST
Astronomical Twilight 5:10 AM CST 6:24 PM CST
Moon 8:34 PM CST (11/21) 9:42 AM CST (11/21)
Length of Visible Light 11h 16m
Length of Day
10h 24m
Waning Gibbous, 85% of the Moon is Illuminated
Nov 21
Waning Gibbous
Nov 25
Last Quarter
Dec 2
New
Dec 9
First Quarter
Dec 17
Full

Hourly Weather History & Observations

Time (CST) Temp. Dew Point Humidity Pressure Visibility Wind Dir Wind Speed Gust Speed Precip Events Conditions
12:15 AM 46.4 °F 46.4 °F 100% 30.14 in 9.0 mi Calm Calm - N/A   Clear
12:35 AM 46.4 °F 46.4 °F 100% 30.14 in 7.0 mi Calm Calm - N/A   Clear
12:55 AM 48.2 °F 48.2 °F 100% 30.14 in 6.0 mi Calm Calm - N/A   Clear
1:15 AM 51.8 °F 51.8 °F 100% 30.14 in 8.0 mi Calm Calm - N/A   Clear
1:35 AM 51.8 °F 51.8 °F 100% 30.14 in 9.0 mi Calm Calm - N/A   Clear
1:55 AM 51.8 °F 51.8 °F 100% 30.15 in 7.0 mi Calm Calm - N/A   Clear
2:15 AM 51.8 °F 51.8 °F 100% 30.15 in 7.0 mi Calm Calm - N/A   Partly Cloudy
2:35 AM 51.8 °F 51.8 °F 100% 30.15 in 8.0 mi Calm Calm - N/A   Clear
2:55 AM 51.8 °F 51.8 °F 100% 30.15 in 8.0 mi Calm Calm - N/A   Scattered Clouds
3:15 AM 51.8 °F 51.8 °F 100% 30.15 in 8.0 mi Calm Calm - N/A   Scattered Clouds
3:35 AM 51.8 °F 50.0 °F 94% 30.15 in 9.0 mi Calm Calm - N/A   Scattered Clouds
3:55 AM 51.8 °F 50.0 °F 94% 30.15 in 10.0 mi ESE 4.6 mph - N/A   Partly Cloudy
4:15 AM 51.8 °F 51.8 °F 100% 30.15 in 9.0 mi East 3.5 mph - N/A   Scattered Clouds
4:35 AM 51.8 °F 51.8 °F 100% 30.16 in 9.0 mi East 5.8 mph - N/A   Mostly Cloudy
4:55 AM 51.8 °F 51.8 °F 100% 30.16 in 9.0 mi ESE 4.6 mph - N/A   Overcast
5:15 AM 51.8 °F 51.8 °F 100% 30.16 in 9.0 mi East 3.5 mph - N/A   Mostly Cloudy
5:35 AM 51.8 °F 51.8 °F 100% 30.17 in 8.0 mi Calm Calm - N/A   Scattered Clouds
5:55 AM 51.8 °F 51.8 °F 100% 30.17 in 7.0 mi Calm Calm - N/A   Mostly Cloudy
6:15 AM 51.8 °F 51.8 °F 100% 30.18 in 7.0 mi East 3.5 mph - N/A   Overcast
6:35 AM 53.6 °F 51.8 °F 94% 30.18 in 4.0 mi East 3.5 mph - N/A   Overcast
6:55 AM 53.6 °F 53.6 °F 100% 30.18 in 1.8 mi ESE 5.8 mph - N/A   Overcast
7:15 AM 53.6 °F 53.6 °F 100% 30.20 in 0.5 mi Calm Calm - N/A Fog Fog
7:35 AM 53.6 °F 53.6 °F 100% 30.20 in 0.2 mi East 4.6 mph - N/A Fog Fog
7:55 AM 53.6 °F 53.6 °F 100% 30.21 in 0.2 mi East 4.6 mph - N/A Fog Fog
8:15 AM 53.6 °F 53.6 °F 100% 30.22 in 0.2 mi East 4.6 mph - N/A Fog Fog
8:35 AM 55.4 °F 55.4 °F 100% 30.22 in 0.2 mi ESE 5.8 mph - N/A Fog Fog
8:55 AM 55.4 °F 55.4 °F 100% 30.22 in 0.2 mi Calm Calm - N/A Fog Fog
9:15 AM 55.4 °F 55.4 °F 100% 30.23 in 0.2 mi East 4.6 mph - N/A Fog Fog
9:35 AM 55.4 °F 55.4 °F 100% 30.23 in 0.2 mi ESE 3.5 mph - N/A Fog Fog
9:55 AM 57.2 °F 57.2 °F 100% 30.24 in 0.5 mi Calm Calm - N/A Fog Fog
10:15 AM 57.2 °F 57.2 °F 100% 30.23 in 0.5 mi ESE 4.6 mph - N/A Fog Fog
10:35 AM 59.0 °F 57.2 °F 94% 30.22 in 1.2 mi East 4.6 mph - N/A   Overcast
10:55 AM 60.8 °F 59.0 °F 94% 30.22 in 3.0 mi ESE 4.6 mph - N/A   Overcast
11:15 AM 60.8 °F 59.0 °F 94% 30.21 in 4.0 mi ESE 5.8 mph - N/A   Overcast
11:35 AM 62.6 °F 60.8 °F 94% 30.20 in 5.0 mi ESE 6.9 mph - N/A   Mostly Cloudy
11:55 AM 62.6 °F 60.8 °F 94% 30.19 in 5.0 mi ESE 5.8 mph - N/A   Overcast
12:15 PM 64.4 °F 60.8 °F 88% 30.18 in 5.0 mi SE 4.6 mph - N/A   Overcast
12:35 PM 64.4 °F 60.8 °F 88% 30.18 in 5.0 mi ESE 5.8 mph - N/A   Overcast
12:55 PM 64.4 °F 60.8 °F 88% 30.17 in 5.0 mi SE 4.6 mph - N/A   Overcast
1:15 PM 66.2 °F 62.6 °F 88% 30.17 in 5.0 mi ESE 4.6 mph - N/A   Overcast
1:35 PM 64.4 °F 62.6 °F 94% 30.16 in 5.0 mi SE 4.6 mph - N/A   Overcast
1:55 PM 66.2 °F 62.6 °F 88% 30.15 in 5.0 mi ESE 4.6 mph - N/A   Overcast
2:15 PM 66.2 °F 62.6 °F 88% 30.15 in 5.0 mi Calm Calm - N/A   Overcast
2:35 PM 66.2 °F 62.6 °F 88% 30.15 in 5.0 mi ESE 4.6 mph - N/A   Overcast
2:55 PM 66.2 °F 62.6 °F 88% 30.15 in 6.0 mi Calm Calm - N/A   Overcast
3:15 PM 66.2 °F 62.6 °F 88% 30.15 in 5.0 mi ESE 4.6 mph - N/A   Haze
3:35 PM 66.2 °F 62.6 °F 88% 30.15 in 5.0 mi ESE 4.6 mph - N/A   Haze
3:55 PM 66.2 °F 62.6 °F 88% 30.16 in 5.0 mi ESE 3.5 mph - N/A   Overcast
4:15 PM 66.2 °F 62.6 °F 88% 30.17 in 7.0 mi ESE 3.5 mph - N/A   Overcast
4:35 PM 64.4 °F 62.6 °F 94% 30.17 in 5.0 mi Calm Calm - N/A   Overcast
4:55 PM 64.4 °F 62.6 °F 94% 30.17 in 6.0 mi East 3.5 mph - N/A   Overcast
5:15 PM 64.4 °F 62.6 °F 94% 30.18 in 5.0 mi Calm Calm - N/A   Overcast
5:35 PM 64.4 °F 62.6 °F 94% 30.18 in 7.0 mi East 3.5 mph - N/A   Overcast
5:55 PM 64.4 °F 62.6 °F 94% 30.18 in 7.0 mi East 3.5 mph - N/A   Overcast
6:15 PM 64.4 °F 62.6 °F 94% 30.18 in 5.0 mi East 4.6 mph - N/A   Overcast
6:35 PM 64.4 °F 62.6 °F 94% 30.19 in 5.0 mi ESE 5.8 mph - N/A   Overcast
6:55 PM 62.6 °F 62.6 °F 100% 30.19 in 4.0 mi ESE 3.5 mph - N/A   Overcast
7:15 PM 62.6 °F 60.8 °F 94% 30.19 in 3.0 mi ESE 4.6 mph - N/A   Overcast
7:35 PM 62.6 °F 60.8 °F 94% 30.20 in 3.0 mi Calm Calm - N/A   Overcast
7:55 PM 62.6 °F 60.8 °F 94% 30.21 in 3.0 mi Calm Calm - N/A   Overcast
8:15 PM 62.6 °F 60.8 °F 94% 30.21 in 3.0 mi ESE 3.5 mph - N/A   Overcast
8:35 PM 62.6 °F 60.8 °F 94% 30.22 in 3.0 mi East 3.5 mph - N/A   Overcast
8:55 PM 62.6 °F 60.8 °F 94% 30.22 in 3.0 mi Calm Calm - N/A   Overcast
9:15 PM 62.6 °F 60.8 °F 94% 30.22 in 3.0 mi East 3.5 mph - N/A   Overcast
9:35 PM 62.6 °F 60.8 °F 94% 30.22 in 2.5 mi ESE 4.6 mph - N/A   Overcast
9:55 PM 62.6 °F 60.8 °F 94% 30.22 in 1.8 mi East 3.5 mph - N/A   Overcast
10:15 PM 62.6 °F 62.6 °F 100% 30.22 in 2.0 mi Calm Calm - N/A   Overcast
10:35 PM 62.6 °F 62.6 °F 100% 30.22 in 2.5 mi East 4.6 mph - N/A   Overcast
10:55 PM 62.6 °F 62.6 °F 100% 30.22 in 2.0 mi East 5.8 mph - N/A   Overcast
11:15 PM 62.6 °F 62.6 °F 100% 30.21 in 1.0 mi ESE 4.6 mph - N/A   Overcast
11:35 PM 62.6 °F 62.6 °F 100% 30.21 in 1.0 mi SE 5.8 mph - N/A   Overcast
11:55 PM 62.6 °F 62.6 °F 100% 30.20 in 1.2 mi ESE 3.5 mph - N/A   Overcast